Location: Newark
(25.6108°S, 54.5803°W)
Time: 08:49:25
(UTC+00:00)

Tiros 1 - Pass Details

Date: 28 October 2020
Orbit: 630 x 664 km, 48.4° (Epoch: 29 November)

Event Time Altitude Azimuth Distance (km) Brightness Sun altitude
Rises 19:30:50 0° 258° (WSW) 2,993 11.7 30.6°
Reaches altitude 10° 19:35:17 10° 220° (SW) 2,093 10.4 29.6°
Maximum altitude 19:36:25 11° 206° (SSW) 2,048 10.2 29.4°
Drops below altitude 10° 19:37:33 10° 192° (SSW) 2,098 10.0 29.1°
Sets 19:42:02 0° 154° (SSE) 3,019 10.4 28.1°
